Regional Weather Roundup
Issued by NWS

Home | Current Version | Previous Version | Graphics & Text | Print | Product List | Glossary On
Versions: 1 2 3 4 5 6 7 8 9 10 11 12 13 14 15 16 17 18 19 20 21 22 23 24 25 26 27 28 29 30 31 32 33 34 35 36 37 38 39 40 41 42 43 44 45 46 47 48 49 50
000
ASUS43 KLOT 241202
RWRIL

ILLINOIS REGIONAL WEATHER ROUNDUP
NATIONAL WEATHER SERVICE CHICAGO/ROMEOVILLE IL
700 AM CDT FRI MAR 24 2017

NOTE: "FAIR" INDICATES FEW OR NO CLOUDS BELOW 12,000 FEET WITH NO
SIGNIFICANT WEATHER AND/OR OBSTRUCTIONS TO VISIBILITY.

* THESE STATIONS ARE NOT UNDER NWS QUALITY CONTROL. THEY ALSO MAY NOT
  REPORT WEATHER SUCH AS PRECIPITATION OR FOG.

ILZ001-002-007-009-015-016-024-241300-
NORTHWEST ILLINOIS

CITY           SKY/WX    TMP DP  RH WIND       PRES   REMARKS
MOLINE         CLEAR     54  45  71 S10       29.85S
6HR MIN TEMP:  48; 6HR MAX TEMP:  54;

STERLING*      CLEAR     49  44  83 VRB5      29.88S
SAVANNA*       CLEAR     48  44  85 S8        29.85S
$$

ILZ003-004-008-010-011-017-018-241300-
NORTH CENTRAL ILLINOIS

CITY           SKY/WX    TMP DP  RH WIND       PRES   REMARKS
ROCKFORD       CLEAR     47  41  80 S10       29.89S
6HR MIN TEMP:  44; 6HR MAX TEMP:  47;

FREEPORT*      CLEAR     49  44  81 S20G29    29.86S
ROCHELLE*      CLEAR     46  42  84 S14       29.89S
DE KALB*       CLEAR     44  40  86 S14       29.91S
$$

ILZ005-006-012>014-019>023-241300-
NORTHEAST ILLINOIS

CITY           SKY/WX    TMP DP  RH WIND       PRES   REMARKS
CHICAGO-OHARE  CLOUDY    52  42  69 S13       29.91R
6HR MIN TEMP:  44; 6HR MAX TEMP:  53;

CHICAGO-MIDWAY CLOUDY    52  44  74 S16G23    29.94R
6HR MIN TEMP:  47; 6HR MAX TEMP:  53;

AURORA         CLEAR     46  39  76 S12       29.92S
6HR MIN TEMP:  44; 6HR MAX TEMP:  46;

LANSING*       CLOUDY    50  46  83 S15G21    29.96S
JOLIET*        CLOUDY    54  46  76 S10       29.95R
WAUKEGAN       CLOUDY    48  42  80 SW10      29.88F
6HR MIN TEMP:  46; 6HR MAX TEMP:  50;

DUPAGE AIRPORT CLOUDY    47  42  83 S10       29.91S
6HR MIN TEMP:  45; 6HR MAX TEMP:  47;

WHEELING       CLOUDY    50  44  80 S9        29.92S
6HR MIN TEMP:  45; 6HR MAX TEMP:  50;

MORRIS*        PTCLDY    47  41  82 CALM      29.93S
NORTHERLY ISL    N/A     54  43  66 S15         N/A
$$

LMZ740>746-241300-
SOUTHERN LAKE MICHIGAN

STATION/POSITION SKY/WX   TEMP    WIND        PRES    VSBY  WAVE
                          AIR SEA DIR/SP/G                  HT/PER
                          (F)     (DEG/KT/KT) (MB)    (MI)  (FT/S)
HARRISON CRIB              54     210/ 26/ 28   N/A
BURNHAM HARBOR             54     200/ 12/ 13   N/A
CALUMET HARBOR             54     190/ 12/ 18 1013.1R
BURNS HARBOR               53     190/ 22/ 28 1014.6R
MICHIGAN CITY              54     170/ 21/ 25   N/A
$$

ILZ025>027-034>036-040-047-049-050-058-095>099-241300-
WEST-CENTRAL ILLINOIS

CITY           SKY/WX    TMP DP  RH WIND       PRES   REMARKS
QUINCY         CLEAR     56  48  74 S12       29.91F
GALESBURG*     CLOUDY    46  43  87 SE7       29.90R
MACOMB*        CLOUDY    48  45  87 S14       29.92F
JACKSONVILLE*  CLEAR     52  46  79 S8        29.97S
PITTSFIELD*    CLEAR     49  45  85 SE6       29.96S
$$

ILZ028>032-037-038-041>044-048-051>054-059>061-241300-
CENTRAL ILLINOIS

CITY           SKY/WX    TMP DP  RH WIND       PRES   REMARKS
PONTIAC        PTCLDY    53  47  81 S15G21    29.98S
BLOOMINGTON    CLEAR     47  43  86 S15       30.00R
DECATUR        CLEAR     50  45  83 S7        30.03R
PEORIA         CLEAR     48  43  82 S12       29.95S
6HR MIN TEMP:  45; 6HR MAX TEMP:  48;

SPRINGFIELD    CLEAR     47  43  86 S8        30.01R
6HR MIN TEMP:  47; 6HR MAX TEMP:  53;

TAYLORVILLE    NOT AVBL
$$

ILZ033-039-045-046-055>057-062-063-241300-
EAST-CENTRAL ILLINOIS

CITY           SKY/WX    TMP DP  RH WIND       PRES   REMARKS
CHAMPAIGN      PTCLDY    51  44  77 S7        30.05R
RANTOUL*       PTCLDY    51  47  87 S7        30.04R
MATTOON        CLEAR     55  48  77 S10G21    30.02R
$$

ILZ079-100>102-241300-
SOUTHWEST ILLINOIS

CITY           SKY/WX    TMP DP  RH WIND       PRES   REMARKS
ALTON          PTCLDY    43  41  93 CALM      30.03R
BELLEVILLE     CLEAR     55  53  94 W3        30.02R
CAHOKIA*       CLEAR     52  47  83 CALM      30.02R
SPARTA*        CLEAR     62  53  73 S10G17    30.02R
$$

ILZ064>066-069>071-074>076-080>082-084>086-088>090-092>094-241300-
SOUTH-CENTRAL ILLINOIS

CITY           SKY/WX    TMP DP  RH WIND       PRES   REMARKS
CARBONDALE     PTCLDY    62  55  77 S18       30.04R
6HR MIN TEMP:  56; 6HR MAX TEMP:  64;

CAIRO*         CLEAR     62  56  80 SE13G22   30.08R
EFFINGHAM*     CLEAR     53  49  86 SE8       30.05R
MARION         PTCLDY    63  57  82 S12       30.06R
MT. VERNON     CLEAR     58  52  80 S9        30.05R
CENTRALIA*     CLEAR     58  53  81 S9        30.02R
SALEM*         CLEAR     60  51  71 S8        30.02R
$$

ILZ067-068-072-073-078-083-087-091-241300-
SOUTHEAST ILLINOIS

CITY           SKY/WX    TMP DP  RH WIND       PRES   REMARKS
LAWRENCEVILLE  CLOUDY    52  48  86 S7        30.09R
FLORA*         PTCLDY    52  49  87 S8        30.06R
FAIRFIELD*     CLEAR     58  52  82 S8        30.05R
HARRISBURG*    CLEAR     61  55  80 S12       30.07R
ROBINSON*      PTCLDY    54  47  79 S13       30.08R
CARMI*         CLEAR     58  53  84 S13       30.07R
$$

ABBREVIATIONS USED IN REMARKS
   TC - TEMPERATURE IN CELSIUS
  WCI - WIND CHILL INDEX
   HX - HEAT INDEX
  VSB - VISIBILITY
$$





USA.gov is the U.S. government's official web portal to all federal, state and local government web resources and services.